Theta_e
323 321 320 320 318 321 323 322 324 323 324 335 334 337 346 347 348 348 347 346 347 347 343 345 345 345 345 345 346 343 341 342 338 336 339 347 346 345 347 348 347 347 345 345
317 322 321 320 319 320 320 321 321 320 322 332 333 336 347 346 347 348 348 347 346 346 346 345 346 346 346 345 343 343 342 344 338 342 345 345 347 346 345 347 346 347 346 345
322 320 321 321 320 321 319 320 320 322 328 337 337 338 348 346 345 347 348 348 347 347 346 346 346 346 346 345 346 344 345 344 344 343 347 347 347 347 347 349 348 346 345 346
318 320 323 320 321 320 318 319 321 321 323 323 337 343 340 347 347 344 345 347 347 347 347 346 346 347 346 346 345 346 345 346 344 345 347 348 348 347 346 345 345 346 344 344
319 318 319 323 323 320 322 320 320 322 322 323 327 337 335 343 348 346 344 344 345 346 346 346 346 345 345 344 345 346 347 346 346 345 346 347 348 347 347 347 346 342 341 344
318 318 319 318 319 320 321 320 316 317 318 323 322 327 328 340 346 346 344 345 345 344 344 345 344 343 345 345 345 345 347 346 346 346 346 347 347 347 348 348 348 340 342 344
318 319 319 318 318 319 320 318 318 319 320 323 319 329 327 334 338 342 343 343 344 345 345 344 344 344 344 344 343 343 344 345 346 346 346 346 346 347 347 347 345 341 344 345
318 319 318 318 318 318 318 317 316 319 318 323 320 324 325 329 336 338 339 341 341 342 345 345 345 344 342 341 342 342 343 344 345 345 346 346 347 347 347 348 346 340 343 345
317 319 320 319 319 319 317 318 316 315 317 316 319 321 326 328 328 334 337 338 337 338 340 344 344 345 344 342 341 341 342 341 344 344 345 346 347 347 347 347 348 344 339 344
320 321 319 319 320 319 317 317 319 312 320 320 317 321 324 329 329 330 332 336 338 338 337 340 342 343 343 343 343 342 341 341 342 343 344 345 345 346 346 347 347 346 341 342
314 317 321 318 320 322 317 316 315 317 313 318 317 319 319 326 327 327 329 334 336 338 339 339 339 341 341 342 343 342 342 342 342 342 344 344 345 346 346 347 346 348 342 338
319 311 318 319 320 321 322 321 313 320 316 313 314 319 319 321 325 327 329 331 333 336 339 340 340 340 341 341 342 342 342 342 342 342 342 343 344 345 345 346 346 347 347 338
317 315 314 318 319 319 319 319 316 314 312 321 317 319 319 318 321 323 327 331 334 334 337 340 340 339 340 340 341 341 341 341 341 342 343 343 343 344 344 345 346 346 348 341
314 313 314 319 319 316 316 320 318 318 319 321 321 319 321 321 319 321 325 328 328 330 336 339 341 340 340 340 340 341 341 341 342 342 342 342 343 343 343 344 346 346 346 348
310 315 316 315 317 318 319 319 320 320 320 320 321 320 319 319 321 322 323 328 331 330 335 338 341 341 341 340 341 341 341 341 342 342 343 342 342 343 343 344 345 346 346 347
306 313 314 317 318 319 319 319 320 320 320 320 320 319 318 320 321 322 324 326 329 330 330 331 339 341 342 341 342 341 341 342 341 341 342 342 343 343 343 344 345 346 346 347
307 310 315 317 317 318 319 320 320 319 319 320 321 320 319 318 318 319 323 325 325 327 327 327 331 339 342 342 342 342 342 342 341 342 342 343 343 343 343 344 345 345 346 347
307 310 313 316 317 321 318 319 321 321 320 319 319 320 321 321 323 325 326 326 326 326 326 326 327 330 338 342 342 343 342 342 342 342 343 343 343 344 344 345 345 345 346 346
307 308 312 318 317 318 319 329 332 330 322 321 319 320 320 322 322 321 324 324 326 327 327 327 328 329 333 341 344 343 342 342 342 342 344 343 343 344 346 347 347 346 347 346
308 308 310 314 319 321 322 329 330 330 329 326 327 323 321 319 320 322 326 325 326 326 326 328 329 328 336 336 341 341 340 340 341 342 342 342 343 344 346 346 347 348 348 347
308 310 311 313 319 319 323 329 329 328 328 328 329 328 327 319 323 328 328 327 327 327 328 327 328 329 333 339 340 340 338 338 339 338 340 341 343 344 345 348 349 350 352 352
311 312 311 311 318 320 326 329 332 327 328 329 331 332 331 333 325 327 328 328 329 328 328 328 329 331 335 336 339 339 339 339 340 341 342 343 344 345 347 348 349 351 350 350
315 315 317 313 315 318 328 327 328 328 329 329 329 335 340 342 334 325 326 328 330 331 330 331 334 334 334 336 339 341 342 343 343 345 346 346 348 350 351 350 352 354 356 357
311 313 318 318 320 326 328 327 326 328 333 333 334 341 344 332 329 333 342 345 346 348 343 336 331 331 335 335 338 340 343 344 343 341 342 343 345 349 352 355 356 356 357 358
310 309 312 316 315 323 328 326 326 331 336 333 337 343 348 344 348 350 354 354 354 352 351 347 347 348 350 351 348 346 342 339 339 340 340 345 348 346 347 349 353 357 358 357
308 310 311 313 315 318 325 325 328 334 334 331 336 348 352 352 354 355 355 355 354 353 352 350 351 350 350 348 346 345 346 347 347 349 351 352 352 350 350 351 354 356 354 353
Wind_Speed
11 5 11 13 8 4 6 4 6 4 3 5 9 5 9 25 25 25 30 33 34 42 41 39 38 36 33 32 33 31 33 28 29 30 32 30 27 26 23 19 17 17 12 12
5 19 11 9 8 8 6 3 5 5 7 3 5 9 8 16 27 34 34 34 38 34 33 40 40 40 39 34 33 34 34 32 34 33 30 29 27 27 25 22 22 21 18 15
17 6 12 10 6 12 6 12 5 5 6 2 5 4 8 10 8 20 26 32 34 37 41 40 43 44 43 42 40 37 36 36 37 36 33 31 30 30 29 28 26 25 22 17
6 8 20 10 12 11 9 7 6 8 1 4 5 5 5 13 19 17 25 33 37 38 39 42 45 47 46 47 43 42 40 39 38 38 39 36 32 31 28 27 29 31 27 23
11 14 13 19 15 10 8 7 9 6 5 1 3 1 6 11 13 19 24 34 38 43 48 47 48 49 49 46 48 45 44 42 41 40 39 38 37 31 26 23 22 25 25 23
8 5 12 10 8 12 9 6 6 5 4 7 10 8 5 8 20 20 25 35 38 40 46 49 49 48 50 50 49 49 48 46 45 43 41 40 37 34 30 28 25 25 26 27
5 11 4 7 8 5 8 6 1 1 2 11 10 7 15 11 18 24 26 41 42 45 46 50 51 51 53 53 51 50 49 49 48 46 44 42 39 36 31 28 27 27 28 28
8 6 16 6 10 11 9 10 6 7 5 11 6 10 8 13 18 29 34 42 40 40 45 49 57 58 57 54 55 53 51 51 50 48 47 44 41 37 33 32 28 29 31 29
7 9 4 10 6 16 6 9 10 5 2 2 5 6 6 5 12 15 28 30 35 41 43 50 55 59 61 58 56 55 53 49 52 51 49 48 45 42 36 33 31 30 32 31
3 2 7 18 6 12 10 11 4 1 6 6 5 4 6 10 12 14 9 25 36 40 44 50 51 52 58 61 58 56 53 51 50 52 52 51 47 44 39 34 33 31 31 34
6 3 3 8 11 16 4 5 3 6 6 6 1 6 8 10 15 19 19 29 36 39 43 45 49 54 54 54 56 57 55 55 53 53 54 52 51 48 44 40 34 33 33 33
2 1 6 7 2 14 20 14 7 8 7 5 4 8 4 10 11 11 15 31 34 35 37 41 45 47 49 53 53 54 54 54 55 55 53 53 51 50 47 44 38 35 34 34
5 2 2 4 8 3 5 10 7 4 2 18 7 6 8 6 7 15 18 24 22 23 29 35 38 42 48 51 51 50 51 52 52 53 53 53 52 52 50 47 42 39 37 37
2 1 3 3 3 3 6 8 9 15 11 13 20 3 4 8 10 10 22 25 29 27 22 29 37 43 47 51 51 49 49 49 49 50 51 51 52 51 50 47 46 43 40 39
3 0 2 4 11 8 12 16 14 20 21 13 10 15 10 9 10 18 34 26 21 22 21 21 31 42 45 48 49 49 48 48 47 47 49 52 51 50 49 50 49 46 44 43
5 3 2 4 10 14 13 14 17 14 12 17 12 9 9 18 21 14 19 21 24 23 20 20 26 35 43 45 47 49 48 46 45 45 46 48 50 50 50 50 51 48 47 46
3 2 2 4 6 9 12 13 13 10 10 12 17 11 7 9 10 16 30 33 30 33 32 29 24 31 37 42 45 47 45 45 47 46 46 47 48 49 48 49 50 52 51 49
4 2 2 4 4 8 7 3 10 20 18 14 9 13 17 16 28 37 40 42 43 42 38 37 30 25 33 40 42 43 45 46 48 48 47 49 48 48 46 45 48 49 52 53
17 5 3 4 6 10 18 4 4 4 13 13 11 10 13 31 28 17 36 40 39 32 34 33 27 21 31 39 41 42 44 46 48 46 47 46 47 48 48 48 46 48 50 53
13 13 6 4 6 7 3 3 6 5 5 7 10 11 14 9 7 9 34 30 34 32 35 23 25 23 27 42 45 42 43 46 47 47 46 47 48 49 49 47 45 46 47 50
5 7 15 13 5 6 4 6 5 8 6 15 11 16 16 10 19 28 24 22 24 27 29 24 27 25 22 30 41 43 41 44 43 45 45 44 45 46 46 46 44 43 44 46
6 6 5 6 6 15 1 5 4 3 12 19 23 25 26 27 34 31 26 23 20 24 27 25 27 23 22 23 32 34 33 33 38 39 39 36 36 37 41 42 41 39 38 43
4 7 4 9 6 5 8 6 8 9 10 16 26 33 29 32 36 42 32 18 14 17 19 21 19 21 19 19 23 26 28 28 29 30 32 31 33 36 37 37 37 39 37 36
5 3 7 6 8 7 4 8 10 10 13 24 24 22 18 18 19 16 17 17 17 15 14 11 12 12 10 8 9 15 22 26 21 20 21 24 29 29 29 29 30 30 30 29
7 6 5 8 20 15 9 6 9 11 11 16 12 6 11 19 27 30 28 26 26 25 24 21 19 16 13 9 8 5 2 7 11 14 14 14 17 22 24 25 27 23 24 27
9 8 5 9 12 14 5 3 6 2 6 13 9 17 20 22 31 34 32 28 27 26 22 21 19 15 14 12 9 6 3 3 3 3 4 5 10 14 16 19 17 15 16 22
Wind_Direction
179 170 212 205 210 180 206 217 197 210 215 172 215 221 191 178 185 184 183 193 203 210 209 210 213 214 213 212 213 212 211 209 205 203 207 213 218 217 217 220 226 229 234 237
119 219 199 181 197 181 218 221 257 288 257 173 190 223 184 184 193 189 187 195 204 210 209 216 218 219 219 212 212 215 214 212 206 207 212 219 225 228 229 230 235 240 247 242
198 218 171 192 181 200 206 212 202 221 349 87 92 309 158 212 210 196 204 205 209 209 210 216 217 219 222 219 216 216 214 214 213 216 217 222 229 232 232 232 237 239 246 240
215 223 186 174 202 177 215 166 170 219 153 234 155 255 229 196 202 200 204 204 210 213 219 221 223 222 222 226 222 222 221 219 219 220 222 224 228 230 230 236 243 246 247 242
208 186 184 205 198 168 209 161 181 178 188 292 216 70 261 175 205 211 207 212 212 213 218 223 228 227 224 224 227 224 224 225 224 223 224 226 228 233 235 236 241 237 230 234
188 189 181 185 172 177 156 104 50 54 105 245 218 182 228 189 208 213 215 220 216 212 216 222 229 230 229 228 229 230 227 227 228 227 225 227 228 231 229 230 236 233 228 230
188 214 206 156 168 160 155 114 305 237 186 240 186 203 233 213 205 206 206 219 218 216 214 218 221 228 230 228 227 230 231 230 229 229 228 229 230 231 231 231 230 224 220 223
174 216 205 185 190 191 191 166 155 197 211 240 130 227 235 200 217 219 215 221 221 217 218 217 222 226 229 230 230 229 230 231 231 231 231 230 232 232 233 233 233 226 223 229
168 238 211 171 168 165 204 187 180 83 261 35 227 299 308 199 205 204 221 224 225 222 219 221 223 223 227 230 228 229 231 234 234 234 234 232 232 233 233 234 235 232 230 229
228 210 205 209 138 190 156 158 156 110 197 233 278 254 223 194 208 214 207 211 226 224 220 223 224 221 225 230 234 231 232 233 236 236 237 236 235 235 234 234 235 234 231 228
10 120 315 117 199 188 130 176 166 165 160 204 297 253 209 210 219 210 223 223 225 227 229 232 229 226 230 231 231 235 234 234 234 238 239 239 237 237 237 235 235 237 235 230
13 84 224 199 242 215 207 199 154 182 223 238 168 242 237 232 203 204 229 235 238 242 242 240 233 227 221 228 230 233 235 236 239 238 239 240 241 239 238 236 235 237 238 234
328 342 81 26 298 130 194 208 172 138 92 223 189 249 222 222 235 242 231 247 247 253 242 238 231 219 225 227 228 233 236 240 240 238 239 240 240 239 238 238 235 235 238 236
39 71 105 245 289 315 300 229 201 201 218 227 236 264 236 241 248 251 239 247 248 246 256 231 225 225 225 228 230 233 237 241 240 239 239 239 240 240 238 238 236 234 236 237
79 332 309 259 282 262 250 264 268 225 226 220 226 226 227 235 228 243 248 242 245 262 258 246 231 225 228 228 231 234 237 237 239 239 239 242 242 241 240 235 236 237 236 238
348 251 60 278 269 278 272 260 254 250 262 243 235 245 209 218 229 249 242 237 236 243 247 260 245 233 228 231 234 236 236 237 237 239 243 243 241 241 240 238 234 235 238 238
311 211 114 258 295 314 285 249 251 243 220 221 229 226 228 242 224 226 241 244 243 246 252 256 254 244 236 236 237 236 240 239 236 237 239 240 239 240 240 238 237 233 235 239
208 197 173 244 323 249 249 310 268 243 226 222 229 212 214 229 238 243 238 240 246 249 251 253 251 248 247 243 240 243 241 241 240 239 237 237 239 240 240 238 238 236 234 236
200 175 251 209 219 295 301 1 14 14 259 225 191 224 220 225 239 252 242 244 244 248 250 255 235 257 246 240 239 241 243 243 244 240 239 240 242 242 239 238 239 239 236 236
190 205 215 164 207 229 179 257 266 166 254 33 6 263 219 190 218 250 250 250 249 246 247 241 234 251 250 234 235 235 242 243 240 244 247 246 246 245 241 243 243 242 241 242
148 187 216 239 253 282 246 258 297 189 280 317 314 283 287 236 220 235 242 251 250 243 237 246 259 247 251 233 229 233 245 241 253 253 247 246 245 245 246 245 245 245 245 245
175 174 189 222 239 235 25 296 170 306 305 305 303 292 279 273 254 229 244 263 261 233 230 240 240 233 237 234 227 241 237 245 243 243 240 241 244 247 245 244 245 251 247 251
234 193 203 198 219 248 146 217 271 284 291 308 307 300 283 275 253 251 241 237 225 226 219 218 219 226 241 240 230 231 234 238 235 239 246 251 253 252 248 247 247 249 243 238
272 337 252 318 239 222 211 299 284 294 348 315 308 297 284 243 223 187 141 125 125 117 121 138 185 196 205 215 230 240 244 248 259 268 268 266 262 258 253 251 249 245 247 243
241 329 301 286 289 285 210 275 291 318 321 324 341 10 107 146 134 128 119 112 105 102 97 98 98 99 94 93 105 117 199 255 258 260 262 262 255 253 251 250 246 241 240 240
213 226 213 248 251 267 233 317 309 260 350 354 23 87 98 102 106 112 104 99 96 91 88 82 75 68 56 41 37 44 35 7 321 278 267 262 253 249 240 221 210 208 200 197